QPF
0.02 0.04 0.11 0.19 0.13 0.12 0.10 0.07 0.05 0.04 0.04 0.07 0.05 0.02 0.02 0.02 0.02 0.05 0.07 0.06 0.04 0.01 0.01 0.02 0.02 0.02 0.03 0.04 0.05 0.03 0.03 0.02 0.02 0.01 0.01 0.01 0.01 0.02 0.03 0.03 0.03 0.03 0.03 0.03 0.04 0.06 0.05 0.05 0.05
0.03 0.06 0.10 0.10 0.10 0.10 0.09 0.07 0.07 0.05 0.04 0.03 0.01 0.00 0.01 0.03 0.02 0.04 0.07 0.06 0.02 0.01 0.01 0.01 0.02 0.03 0.03 0.02 0.03 0.04 0.04 0.03 0.02 0.02 0.01 0.02 0.01 0.02 0.02 0.02 0.03 0.04 0.05 0.04 0.03 0.04 0.04 0.03 0.04
0.06 0.11 0.11 0.10 0.10 0.07 0.07 0.08 0.05 0.04 0.02 0.01 0.00 0.00 0.01 0.03 0.04 0.05 0.05 0.04 0.03 0.02 0.01 0.01 0.01 0.02 0.02 0.02 0.03 0.05 0.05 0.04 0.03 0.03 0.02 0.02 0.02 0.02 0.02 0.02 0.03 0.03 0.02 0.02 0.03 0.05 0.03 0.04 0.05
0.10 0.15 0.13 0.10 0.09 0.04 0.06 0.07 0.05 0.03 0.02 0.01 0.00 0.01 0.03 0.05 0.04 0.04 0.03 0.03 0.02 0.01 0.01 0.01 0.01 0.01 0.01 0.02 0.04 0.05 0.05 0.04 0.03 0.03 0.03 0.02 0.02 0.02 0.02 0.02 0.02 0.02 0.02 0.02 0.04 0.07 0.06 0.04 0.05
0.12 0.14 0.14 0.10 0.05 0.04 0.03 0.04 0.04 0.02 0.01 0.02 0.01 0.01 0.03 0.05 0.03 0.02 0.03 0.02 0.02 0.01 0.02 0.01 0.01 0.01 0.01 0.02 0.02 0.03 0.04 0.03 0.02 0.02 0.02 0.01 0.02 0.02 0.03 0.02 0.02 0.02 0.02 0.04 0.04 0.06 0.05 0.04 0.05
0.11 0.16 0.17 0.12 0.07 0.05 0.03 0.02 0.02 0.02 0.03 0.02 0.01 0.01 0.03 0.04 0.03 0.03 0.02 0.02 0.02 0.01 0.02 0.01 0.01 0.01 0.01 0.01 0.01 0.02 0.04 0.04 0.02 0.02 0.02 0.02 0.02 0.02 0.03 0.03 0.02 0.02 0.03 0.04 0.04 0.04 0.04 0.05 0.06
0.13 0.19 0.18 0.12 0.11 0.07 0.03 0.02 0.02 0.01 0.02 0.01 0.00 0.00 0.02 0.04 0.04 0.04 0.03 0.02 0.02 0.02 0.02 0.02 0.01 0.01 0.01 0.01 0.02 0.03 0.03 0.04 0.03 0.02 0.02 0.02 0.03 0.03 0.03 0.03 0.04 0.05 0.05 0.04 0.05 0.04 0.04 0.05 0.06
0.08 0.12 0.14 0.10 0.12 0.05 0.02 0.02 0.02 0.01 0.01 0.00 0.00 0.00 0.01 0.02 0.02 0.04 0.05 0.04 0.02 0.03 0.03 0.02 0.02 0.03 0.02 0.01 0.02 0.04 0.03 0.04 0.04 0.03 0.03 0.03 0.04 0.03 0.03 0.03 0.04 0.03 0.02 0.02 0.03 0.06 0.07 0.07 0.06
0.08 0.08 0.09 0.07 0.07 0.04 0.01 0.01 0.01 0.01 0.01 0.00 0.00 0.00 0.00 0.01 0.01 0.02 0.02 0.02 0.02 0.02 0.03 0.03 0.03 0.03 0.01 0.01 0.01 0.02 0.02 0.03 0.04 0.04 0.03 0.01 0.01 0.01 0.02 0.02 0.03 0.03 0.02 0.01 0.03 0.06 0.09 0.11 0.09
0.05 0.05 0.05 0.04 0.02 0.01 0.01 0.01 0.01 0.00 0.00 0.01 0.01 0.01 0.01 0.02 0.01 0.01 0.01 0.01 0.01 0.01 0.01 0.01 0.03 0.04 0.03 0.02 0.02 0.02 0.01 0.02 0.03 0.02 0.01 0.01 0.01 0.01 0.01 0.02 0.02 0.02 0.02 0.01 0.02 0.06 0.09 0.10 0.09
0.03 0.02 0.01 0.02 0.03 0.03 0.01 0.01 0.01 0.00 0.00 0.00 0.01 0.00 0.00 0.00 0.00 0.01 0.01 0.01 0.01 0.01 0.01 0.01 0.01 0.03 0.03 0.02 0.04 0.04 0.03 0.03 0.03 0.02 0.01 0.01 0.02 0.02 0.01 0.01 0.02 0.02 0.02 0.03 0.05 0.07 0.07 0.09 0.12
0.03 0.02 0.01 0.01 0.02 0.03 0.01 0.01 0.01 0.01 0.00 0.01 0.00 0.00 0.00 0.00 0.00 0.01 0.01 0.01 0.02 0.02 0.01 0.01 0.00 0.01 0.01 0.01 0.02 0.03 0.03 0.04 0.04 0.03 0.02 0.02 0.03 0.03 0.03 0.02 0.02 0.01 0.01 0.02 0.04 0.08 0.14 0.19 0.23
0.03 0.03 0.02 0.02 0.01 0.01 0.01 0.01 0.01 0.01 0.01 0.01 0.00 0.00 0.00 0.00 0.00 0.01 0.02 0.02 0.02 0.01 0.02 0.01 0.00 0.01 0.01 0.01 0.01 0.02 0.02 0.02 0.03 0.03 0.03 0.02 0.02 0.02 0.02 0.03 0.03 0.02 0.02 0.02 0.02 0.03 0.05 0.10 0.14
0.02 0.02 0.02 0.02 0.01 0.01 0.01 0.01 0.01 0.01 0.01 0.01 0.00 0.00 0.00 0.00 0.01 0.01 0.01 0.03 0.02 0.02 0.02 0.01 0.01 0.02 0.02 0.02 0.02 0.02 0.02 0.02 0.02 0.02 0.02 0.06 0.03 0.02 0.02 0.03 0.04 0.03 0.02 0.02 0.02 0.03 0.04 0.06 0.06
0.02 0.03 0.04 0.01 0.01 0.02 0.03 0.01 0.00 0.01 0.01 0.01 0.00 0.00 0.00 0.00 0.00 0.00 0.01 0.02 0.03 0.04 0.04 0.02 0.02 0.02 0.02 0.01 0.01 0.01 0.01 0.01 0.01 0.01 0.01 0.03 0.03 0.03 0.03 0.03 0.04 0.02 0.02 0.03 0.03 0.03 0.04 0.03 0.03
0.02 0.03 0.07 0.04 0.02 0.05 0.02 0.01 0.01 0.01 0.01 0.01 0.00 0.00 0.01 0.00 0.00 0.00 0.01 0.02 0.03 0.06 0.07 0.06 0.03 0.04 0.04 0.03 0.01 0.02 0.02 0.02 0.02 0.02 0.02 0.02 0.03 0.02 0.04 0.04 0.03 0.02 0.02 0.02 0.02 0.02 0.03 0.03 0.02
0.05 0.04 0.06 0.04 0.03 0.04 0.01 0.02 0.01 0.01 0.01 0.01 0.00 0.00 0.01 0.01 0.01 0.01 0.02 0.03 0.04 0.08 0.12 0.10 0.09 0.06 0.04 0.03 0.02 0.03 0.04 0.04 0.03 0.04 0.04 0.04 0.04 0.03 0.04 0.03 0.02 0.02 0.02 0.02 0.01 0.02 0.02 0.02 0.03
0.04 0.04 0.04 0.03 0.02 0.02 0.02 0.03 0.04 0.01 0.01 0.01 0.00 0.01 0.01 0.03 0.02 0.01 0.02 0.02 0.01 0.03 0.07 0.07 0.07 0.06 0.04 0.03 0.03 0.03 0.04 0.04 0.04 0.09 0.09 0.05 0.03 0.02 0.03 0.03 0.03 0.03 0.04 0.04 0.03 0.03 0.03 0.04 0.04
0.01 0.02 0.04 0.05 0.05 0.02 0.03 0.06 0.05 0.02 0.02 0.01 0.01 0.01 0.01 0.01 0.02 0.02 0.02 0.00 0.01 0.02 0.03 0.04 0.05 0.05 0.05 0.03 0.03 0.04 0.04 0.03 0.03 0.04 0.06 0.04 0.03 0.03 0.03 0.03 0.03 0.04 0.03 0.04 0.04 0.04 0.05 0.07 0.06
0.01 0.02 0.02 0.04 0.06 0.03 0.04 0.09 0.05 0.04 0.03 0.02 0.01 0.01 0.01 0.01 0.02 0.02 0.01 0.01 0.02 0.04 0.05 0.03 0.04 0.05 0.04 0.04 0.04 0.03 0.02 0.01 0.02 0.05 0.05 0.03 0.03 0.02 0.02 0.03 0.01 0.02 0.02 0.02 0.04 0.04 0.04 0.06 0.06
0.02 0.02 0.02 0.03 0.06 0.06 0.08 0.13 0.10 0.07 0.06 0.03 0.02 0.02 0.02 0.01 0.01 0.01 0.01 0.01 0.03 0.05 0.06 0.04 0.04 0.04 0.05 0.06 0.06 0.04 0.02 0.01 0.01 0.03 0.03 0.03 0.03 0.04 0.05 0.06 0.03 0.03 0.03 0.03 0.05 0.04 0.04 0.04 0.04
0.02 0.02 0.02 0.01 0.03 0.06 0.07 0.11 0.11 0.11 0.08 0.05 0.03 0.03 0.02 0.02 0.01 0.01 0.02 0.02 0.02 0.03 0.06 0.06 0.04 0.06 0.08 0.08 0.06 0.05 0.02 0.01 0.01 0.01 0.02 0.01 0.02 0.02 0.04 0.04 0.03 0.03 0.03 0.03 0.04 0.04 0.04 0.05 0.05
0.01 0.01 0.01 0.01 0.02 0.03 0.06 0.08 0.08 0.09 0.06 0.05 0.04 0.02 0.02 0.01 0.01 0.01 0.02 0.03 0.04 0.06 0.11 0.12 0.06 0.06 0.08 0.07 0.07 0.05 0.04 0.02 0.01 0.01 0.02 0.01 0.02 0.02 0.02 0.02 0.01 0.01 0.02 0.03 0.04 0.05 0.05 0.06 0.05
0.01 0.01 0.01 0.02 0.02 0.04 0.05 0.06 0.08 0.09 0.07 0.04 0.04 0.03 0.02 0.01 0.01 0.01 0.02 0.04 0.05 0.05 0.06 0.06 0.05 0.04 0.04 0.05 0.04 0.03 0.03 0.02 0.02 0.02 0.01 0.01 0.02 0.02 0.03 0.04 0.04 0.03 0.03 0.05 0.05 0.05 0.06 0.06 0.06
0.01 0.01 0.02 0.03 0.04 0.05 0.06 0.06 0.08 0.07 0.06 0.04 0.03 0.03 0.02 0.01 0.02 0.02 0.03 0.06 0.08 0.09 0.09 0.11 0.09 0.07 0.04 0.03 0.03 0.02 0.02 0.02 0.02 0.02 0.01 0.01 0.01 0.02 0.02 0.03 0.05 0.05 0.05 0.04 0.04 0.05 0.05 0.04 0.04
0.01 0.01 0.03 0.03 0.04 0.06 0.07 0.06 0.07 0.06 0.05 0.04 0.04 0.03 0.02 0.01 0.02 0.03 0.04 0.08 0.07 0.06 0.09 0.11 0.08 0.06 0.06 0.04 0.03 0.03 0.02 0.02 0.02 0.02 0.01 0.01 0.02 0.03 0.01 0.01 0.04 0.05 0.07 0.08 0.06 0.05 0.06 0.06 0.06
0.01 0.01 0.01 0.02 0.03 0.05 0.05 0.04 0.04 0.05 0.06 0.07 0.06 0.04 0.03 0.02 0.02 0.03 0.06 0.11 0.12 0.10 0.08 0.10 0.09 0.06 0.06 0.06 0.06 0.05 0.04 0.03 0.02 0.01 0.01 0.01 0.01 0.01 0.01 0.02 0.02 0.03 0.05 0.08 0.10 0.08 0.08 0.08 0.07
0.00 0.01 0.01 0.02 0.03 0.05 0.06 0.07 0.05 0.06 0.06 0.05 0.05 0.04 0.04 0.05 0.05 0.05 0.06 0.09 0.13 0.16 0.16 0.16 0.17 0.15 0.17 0.15 0.08 0.06 0.05 0.03 0.02 0.01 0.02 0.02 0.02 0.01 0.01 0.01 0.01 0.01 0.01 0.02 0.04 0.06 0.08 0.09 0.07
0.01 0.01 0.01 0.02 0.03 0.05 0.08 0.06 0.06 0.06 0.04 0.04 0.03 0.04 0.06 0.05 0.06 0.06 0.06 0.08 0.11 0.14 0.14 0.16 0.26 0.30 0.26 0.17 0.11 0.08 0.06 0.03 0.03 0.03 0.02 0.02 0.01 0.01 0.01 0.01 0.01 0.01 0.01 0.01 0.02 0.04 0.05 0.06 0.06
0.01 0.01 0.02 0.02 0.03 0.04 0.06 0.05 0.03 0.04 0.04 0.04 0.05 0.04 0.05 0.04 0.06 0.06 0.07 0.10 0.10 0.10 0.15 0.16 0.16 0.16 0.12 0.08 0.06 0.05 0.05 0.05 0.06 0.05 0.04 0.03 0.02 0.01 0.02 0.02 0.02 0.02 0.02 0.02 0.04 0.04 0.04 0.03 0.03
MSLP
1009.38 1010.43 1011.49 1012.37 1012.92 1013.04 1012.73 1012.08 1011.21 1010.31 1009.55 1009.05 1008.84 1008.91 1009.17 1009.49 1009.76 1009.87 1009.79 1009.54 1009.17 1008.79 1008.46 1008.26 1008.22 1008.30 1008.48 1008.68 1008.85 1008.98 1009.06 1009.12 1009.19 1009.32 1009.52 1009.80 1010.15 1010.51 1010.86 1011.15 1011.36 1011.52 1011.63 1011.72 1011.84 1011.99 1012.18 1012.40 1012.64
1009.68 1010.86 1011.96 1012.76 1013.14 1013.03 1012.46 1011.54 1010.45 1009.39 1008.53 1007.97 1007.76 1007.85 1008.14 1008.49 1008.79 1008.95 1008.94 1008.78 1008.54 1008.30 1008.14 1008.09 1008.18 1008.38 1008.62 1008.87 1009.07 1009.21 1009.29 1009.35 1009.43 1009.56 1009.77 1010.06 1010.39 1010.73 1011.05 1011.32 1011.52 1011.67 1011.79 1011.90 1012.04 1012.20 1012.40 1012.63 1012.86
1010.11 1011.35 1012.40 1013.08 1013.26 1012.91 1012.09 1010.95 1009.70 1008.53 1007.61 1007.05 1006.85 1006.96 1007.26 1007.62 1007.93 1008.10 1008.13 1008.05 1007.92 1007.81 1007.80 1007.90 1008.13 1008.43 1008.76 1009.06 1009.29 1009.45 1009.55 1009.62 1009.71 1009.84 1010.04 1010.31 1010.61 1010.91 1011.20 1011.44 1011.63 1011.79 1011.93 1012.08 1012.24 1012.44 1012.66 1012.89 1013.12
1010.64 1011.84 1012.78 1013.28 1013.24 1012.65 1011.64 1010.35 1009.00 1007.80 1006.90 1006.37 1006.21 1006.34 1006.63 1006.98 1007.27 1007.44 1007.48 1007.45 1007.40 1007.41 1007.53 1007.76 1008.10 1008.50 1008.89 1009.24 1009.50 1009.68 1009.80 1009.89 1009.99 1010.12 1010.32 1010.55 1010.82 1011.08 1011.33 1011.55 1011.73 1011.91 1012.08 1012.27 1012.48 1012.71 1012.95 1013.19 1013.40
1011.18 1012.28 1013.04 1013.31 1013.04 1012.27 1011.10 1009.75 1008.40 1007.24 1006.42 1005.97 1005.87 1006.02 1006.31 1006.62 1006.87 1007.01 1007.05 1007.05 1007.07 1007.17 1007.39 1007.72 1008.14 1008.60 1009.03 1009.40 1009.68 1009.87 1010.00 1010.11 1010.23 1010.38 1010.57 1010.80 1011.04 1011.27 1011.48 1011.68 1011.86 1012.05 1012.25 1012.48 1012.74 1013.00 1013.25 1013.49 1013.69
1011.65 1012.56 1013.09 1013.12 1012.64 1011.72 1010.49 1009.15 1007.88 1006.85 1006.16 1005.83 1005.80 1005.98 1006.26 1006.53 1006.72 1006.82 1006.86 1006.88 1006.95 1007.12 1007.40 1007.80 1008.26 1008.73 1009.16 1009.52 1009.79 1009.98 1010.13 1010.27 1010.42 1010.60 1010.82 1011.05 1011.28 1011.49 1011.68 1011.86 1012.04 1012.24 1012.46 1012.72 1012.99 1013.27 1013.53 1013.75 1013.92
1011.95 1012.62 1012.88 1012.68 1012.03 1011.02 1009.79 1008.54 1007.42 1006.57 1006.06 1005.86 1005.92 1006.13 1006.39 1006.61 1006.76 1006.82 1006.84 1006.89 1007.00 1007.23 1007.56 1007.98 1008.44 1008.89 1009.28 1009.60 1009.84 1010.02 1010.18 1010.36 1010.56 1010.79 1011.05 1011.31 1011.55 1011.76 1011.94 1012.10 1012.27 1012.46 1012.68 1012.94 1013.22 1013.49 1013.73 1013.92 1014.07
1012.01 1012.42 1012.43 1012.01 1011.23 1010.18 1009.03 1007.92 1007.00 1006.37 1006.04 1005.98 1006.11 1006.34 1006.57 1006.75 1006.85 1006.89 1006.92 1006.99 1007.16 1007.43 1007.80 1008.23 1008.66 1009.06 1009.39 1009.65 1009.84 1010.01 1010.18 1010.40 1010.66 1010.97 1011.29 1011.60 1011.87 1012.08 1012.25 1012.40 1012.54 1012.70 1012.90 1013.14 1013.39 1013.64 1013.85 1014.00 1014.10
1011.82 1011.97 1011.75 1011.16 1010.30 1009.28 1008.24 1007.32 1006.63 1006.21 1006.06 1006.11 1006.30 1006.52 1006.72 1006.84 1006.90 1006.93 1006.98 1007.10 1007.32 1007.64 1008.04 1008.47 1008.88 1009.22 1009.48 1009.67 1009.82 1009.97 1010.16 1010.42 1010.76 1011.14 1011.53 1011.90 1012.21 1012.44 1012.61 1012.72 1012.83 1012.96 1013.11 1013.31 1013.51 1013.71 1013.88 1013.99 1014.05
1011.45 1011.37 1010.95 1010.24 1009.35 1008.40 1007.51 1006.79 1006.31 1006.09 1006.08 1006.22 1006.43 1006.62 1006.76 1006.83 1006.85 1006.87 1006.95 1007.12 1007.41 1007.79 1008.22 1008.66 1009.04 1009.34 1009.54 1009.68 1009.79 1009.93 1010.15 1010.46 1010.86 1011.32 1011.78 1012.21 1012.55 1012.80 1012.96 1013.06 1013.13 1013.20 1013.31 1013.44 1013.59 1013.74 1013.85 1013.92 1013.94
1010.98 1010.72 1010.15 1009.38 1008.50 1007.65 1006.92 1006.40 1006.11 1006.05 1006.14 1006.32 1006.50 1006.64 1006.70 1006.69 1006.67 1006.69 1006.79 1007.02 1007.36 1007.80 1008.28 1008.73 1009.11 1009.38 1009.55 1009.66 1009.77 1009.92 1010.16 1010.52 1010.97 1011.49 1012.01 1012.49 1012.86 1013.13 1013.29 1013.37 1013.40 1013.43 1013.48 1013.56 1013.66 1013.74 1013.81 1013.83 1013.82
1010.55 1010.15 1009.49 1008.69 1007.87 1007.13 1006.56 1006.21 1006.08 1006.12 1006.27 1006.44 1006.56 1006.60 1006.57 1006.48 1006.41 1006.40 1006.52 1006.78 1007.17 1007.66 1008.18 1008.66 1009.05 1009.33 1009.51 1009.63 1009.74 1009.92 1010.19 1010.59 1011.08 1011.64 1012.19 1012.69 1013.09 1013.37 1013.53 1013.60 1013.62 1013.62 1013.64 1013.67 1013.72 1013.76 1013.78 1013.77 1013.74
1010.28 1009.78 1009.07 1008.28 1007.53 1006.91 1006.48 1006.27 1006.25 1006.36 1006.51 1006.63 1006.66 1006.60 1006.45 1006.27 1006.12 1006.07 1006.18 1006.45 1006.86 1007.38 1007.92 1008.43 1008.85 1009.17 1009.38 1009.55 1009.71 1009.93 1010.24 1010.65 1011.16 1011.72 1012.28 1012.78 1013.18 1013.46 1013.64 1013.72 1013.74 1013.75 1013.76 1013.77 1013.79 1013.80 1013.79 1013.76 1013.70
1010.24 1009.67 1008.95 1008.19 1007.52 1007.01 1006.71 1006.60 1006.64 1006.77 1006.88 1006.93 1006.86 1006.68 1006.41 1006.13 1005.89 1005.79 1005.85 1006.09 1006.48 1006.99 1007.54 1008.07 1008.53 1008.90 1009.19 1009.42 1009.65 1009.92 1010.26 1010.69 1011.18 1011.71 1012.23 1012.70 1013.09 1013.38 1013.57 1013.68 1013.74 1013.78 1013.81 1013.83 1013.85 1013.85 1013.83 1013.78 1013.71
1010.39 1009.79 1009.08 1008.38 1007.80 1007.39 1007.18 1007.15 1007.22 1007.33 1007.39 1007.34 1007.17 1006.88 1006.50 1006.12 1005.80 1005.61 1005.60 1005.77 1006.11 1006.58 1007.10 1007.64 1008.13 1008.56 1008.93 1009.25 1009.56 1009.89 1010.26 1010.68 1011.13 1011.60 1012.06 1012.48 1012.83 1013.11 1013.33 1013.49 1013.61 1013.70 1013.78 1013.84 1013.88 1013.89 1013.86 1013.81 1013.73
1010.66 1010.05 1009.37 1008.76 1008.27 1007.96 1007.83 1007.84 1007.92 1007.99 1007.98 1007.85 1007.58 1007.19 1006.73 1006.26 1005.87 1005.60 1005.50 1005.58 1005.82 1006.21 1006.68 1007.19 1007.71 1008.20 1008.65 1009.07 1009.47 1009.86 1010.24 1010.64 1011.03 1011.42 1011.78 1012.12 1012.42 1012.69 1012.93 1013.15 1013.34 1013.51 1013.65 1013.77 1013.84 1013.87 1013.86 1013.81 1013.73
1010.91 1010.33 1009.73 1009.21 1008.84 1008.63 1008.57 1008.61 1008.67 1008.68 1008.60 1008.38 1008.03 1007.57 1007.06 1006.54 1006.08 1005.74 1005.56 1005.53 1005.67 1005.95 1006.34 1006.82 1007.33 1007.87 1008.40 1008.91 1009.38 1009.83 1010.23 1010.59 1010.91 1011.19 1011.45 1011.70 1011.94 1012.18 1012.44 1012.70 1012.96 1013.21 1013.43 1013.60 1013.72 1013.78 1013.79 1013.76 1013.69
1011.03 1010.51 1010.02 1009.65 1009.42 1009.33 1009.34 1009.39 1009.42 1009.37 1009.20 1008.90 1008.48 1007.98 1007.43 1006.89 1006.41 1006.03 1005.77 1005.65 1005.68 1005.85 1006.15 1006.56 1007.07 1007.63 1008.21 1008.80 1009.34 1009.83 1010.24 1010.56 1010.80 1010.98 1011.13 1011.27 1011.44 1011.64 1011.90 1012.20 1012.52 1012.83 1013.12 1013.35 1013.51 1013.61 1013.64 1013.64 1013.60
1010.91 1010.52 1010.21 1010.03 1009.98 1010.02 1010.10 1010.16 1010.15 1010.01 1009.75 1009.36 1008.88 1008.35 1007.80 1007.27 1006.80 1006.41 1006.11 1005.92 1005.86 1005.93 1006.14 1006.48 1006.94 1007.50 1008.12 1008.76 1009.36 1009.88 1010.29 1010.57 1010.74 1010.83 1010.87 1010.91 1010.99 1011.15 1011.39 1011.70 1012.05 1012.41 1012.75 1013.02 1013.22 1013.35 1013.41 1013.44 1013.45
1010.57 1010.37 1010.30 1010.36 1010.53 1010.73 1010.89 1010.96 1010.88 1010.64 1010.26 1009.77 1009.22 1008.65 1008.11 1007.61 1007.18 1006.82 1006.53 1006.31 1006.19 1006.17 1006.29 1006.55 1006.97 1007.51 1008.14 1008.80 1009.43 1009.96 1010.37 1010.63 1010.73 1010.73 1010.68 1010.63 1010.63 1010.73 1010.94 1011.24 1011.60 1011.98 1012.33 1012.62 1012.85 1013.00 1013.10 1013.17 1013.23
1010.07 1010.12 1010.35 1010.70 1011.12 1011.50 1011.75 1011.81 1011.65 1011.29 1010.76 1010.14 1009.49 1008.88 1008.35 1007.90 1007.53 1007.22 1006.97 1006.76 1006.61 1006.54 1006.58 1006.77 1007.12 1007.61 1008.21 1008.87 1009.50 1010.04 1010.44 1010.67 1010.73 1010.67 1010.54 1010.42 1010.35 1010.39 1010.55 1010.82 1011.16 1011.52 1011.87 1012.17 1012.40 1012.58 1012.71 1012.82 1012.94
1009.55 1009.89 1010.45 1011.14 1011.82 1012.39 1012.72 1012.77 1012.51 1011.99 1011.29 1010.52 1009.75 1009.08 1008.53 1008.12 1007.82 1007.59 1007.40 1007.23 1007.08 1006.98 1006.96 1007.07 1007.34 1007.76 1008.30 1008.91 1009.52 1010.04 1010.43 1010.64 1010.67 1010.57 1010.40 1010.22 1010.10 1010.08 1010.19 1010.41 1010.71 1011.05 1011.37 1011.65 1011.88 1012.06 1012.22 1012.38 1012.56
1009.14 1009.80 1010.71 1011.71 1012.66 1013.40 1013.81 1013.83 1013.47 1012.78 1011.89 1010.94 1010.03 1009.27 1008.70 1008.31 1008.07 1007.92 1007.80 1007.68 1007.56 1007.44 1007.36 1007.40 1007.57 1007.89 1008.35 1008.88 1009.43 1009.92 1010.28 1010.47 1010.49 1010.37 1010.18 1009.97 1009.81 1009.75 1009.81 1009.98 1010.23 1010.51 1010.80 1011.05 1011.27 1011.45 1011.63 1011.82 1012.04
1008.96 1009.92 1011.14 1012.43 1013.61 1014.50 1014.97 1014.96 1014.48 1013.63 1012.56 1011.42 1010.37 1009.51 1008.89 1008.51 1008.32 1008.23 1008.18 1008.12 1008.01 1007.88 1007.76 1007.71 1007.77 1007.98 1008.32 1008.75 1009.21 1009.63 1009.95 1010.12 1010.14 1010.02 1009.82 1009.61 1009.43 1009.34 1009.35 1009.47 1009.67 1009.90 1010.14 1010.36 1010.55 1010.73 1010.91 1011.12 1011.38
1009.04 1010.25 1011.71 1013.23 1014.58 1015.58 1016.08 1016.03 1015.46 1014.47 1013.24 1011.96 1010.78 1009.83 1009.15 1008.76 1008.59 1008.55 1008.55 1008.52 1008.43 1008.29 1008.12 1007.98 1007.93 1008.01 1008.21 1008.51 1008.86 1009.20 1009.46 1009.60 1009.61 1009.50 1009.32 1009.11 1008.93 1008.82 1008.80 1008.87 1009.01 1009.19 1009.38 1009.57 1009.74 1009.90 1010.08 1010.30 1010.56
1009.37 1010.73 1012.34 1013.99 1015.43 1016.48 1016.99 1016.91 1016.28 1015.20 1013.88 1012.49 1011.23 1010.21 1009.50 1009.09 1008.92 1008.91 1008.93 1008.93 1008.84 1008.67 1008.44 1008.22 1008.06 1008.00 1008.05 1008.22 1008.44 1008.68 1008.87 1008.98 1008.97 1008.87 1008.69 1008.49 1008.32 1008.19 1008.14 1008.17 1008.27 1008.40 1008.55 1008.70 1008.84 1008.98 1009.15 1009.35 1009.60
1009.84 1011.25 1012.90 1014.56 1016.01 1017.06 1017.56 1017.47 1016.82 1015.72 1014.38 1012.98 1011.69 1010.66 1009.93 1009.51 1009.34 1009.32 1009.35 1009.34 1009.24 1009.04 1008.77 1008.46 1008.19 1008.00 1007.92 1007.94 1008.04 1008.16 1008.27 1008.32 1008.29 1008.19 1008.02 1007.83 1007.65 1007.51 1007.44 1007.43 1007.48 1007.56 1007.67 1007.78 1007.89 1008.01 1008.15 1008.32 1008.54
1010.34 1011.69 1013.26 1014.84 1016.22 1017.21 1017.69 1017.60 1016.99 1015.96 1014.68 1013.35 1012.12 1011.13 1010.42 1010.01 1009.83 1009.80 1009.81 1009.79 1009.66 1009.43 1009.10 1008.73 1008.37 1008.08 1007.87 1007.77 1007.74 1007.75 1007.77 1007.76 1007.68 1007.55 1007.38 1007.18 1006.99 1006.83 1006.73 1006.68 1006.68 1006.71 1006.77 1006.84 1006.92 1007.01 1007.12 1007.26 1007.44
1010.77 1011.97 1013.36 1014.76 1015.99 1016.88 1017.33 1017.28 1016.76 1015.87 1014.75 1013.57 1012.48 1011.59 1010.95 1010.56 1010.38 1010.32 1010.31 1010.24 1010.09 1009.82 1009.47 1009.05 1008.64 1008.26 1007.96 1007.75 1007.61 1007.52 1007.44 1007.35 1007.22 1007.05 1006.85 1006.62 1006.41 1006.22 1006.07 1005.96 1005.91 1005.89 1005.90 1005.92 1005.96 1006.01 1006.09 1006.20 1006.33
1011.09 1012.06 1013.20 1014.36 1015.40 1016.17 1016.58 1016.58 1016.20 1015.50 1014.61 1013.65 1012.76 1012.01 1011.46 1011.12 1010.94 1010.86 1010.80 1010.69 1010.51 1010.22 1009.84 1009.41 1008.97 1008.55 1008.19 1007.90 1007.67 1007.48 1007.32 1007.14 1006.94 1006.71 1006.45 1006.18 1005.92 1005.68 1005.47 1005.31 1005.18 1005.10 1005.04 1005.01 1005.01 1005.02 1005.06 1005.13 1005.23
Thickness
5820 5817 5814 5803 5785 5771 5771 5789 5802 5805 5807 5816 5819 5812 5802 5795 5786 5777 5800 5808 5806 5803 5802 5801 5800 5799 5798 5798 5797 5796 5795 5795 5794 5793 5792 5791 5790 5789 5788 5787 5785 5784 5783 5781 5780 5779 5777 5776 5776
5823 5819 5809 5795 5775 5760 5774 5796 5802 5809 5816 5822 5819 5813 5804 5798 5803 5801 5803 5807 5807 5805 5803 5802 5800 5799 5798 5797 5796 5795 5794 5794 5793 5792 5791 5790 5789 5788 5787 5786 5784 5783 5782 5781 5780 5779 5777 5776 5776
5826 5822 5802 5787 5775 5769 5782 5802 5809 5819 5827 5825 5816 5814 5806 5800 5806 5805 5809 5809 5807 5805 5804 5803 5801 5800 5799 5797 5796 5795 5794 5793 5792 5791 5790 5790 5789 5788 5787 5786 5785 5784 5783 5782 5781 5779 5778 5777 5776
5824 5812 5800 5783 5779 5794 5804 5811 5818 5819 5822 5825 5818 5806 5809 5817 5816 5814 5813 5811 5807 5805 5804 5803 5802 5801 5799 5797 5796 5795 5794 5793 5792 5791 5790 5789 5789 5788 5787 5786 5785 5784 5783 5782 5781 5780 5779 5778 5776
5822 5803 5785 5778 5788 5808 5819 5825 5826 5819 5817 5818 5816 5801 5802 5818 5823 5818 5814 5811 5807 5805 5805 5804 5802 5801 5800 5798 5797 5795 5794 5792 5791 5790 5790 5789 5789 5788 5788 5787 5786 5785 5784 5783 5782 5781 5780 5779 5778
5809 5799 5777 5774 5794 5814 5825 5832 5828 5820 5816 5817 5813 5802 5801 5818 5818 5816 5815 5811 5809 5806 5805 5804 5803 5801 5800 5799 5797 5795 5794 5792 5791 5790 5790 5790 5789 5789 5788 5788 5787 5786 5785 5784 5783 5782 5781 5780 5779
5805 5793 5782 5788 5797 5808 5825 5836 5828 5821 5817 5819 5820 5802 5802 5813 5818 5818 5815 5812 5809 5807 5805 5804 5803 5801 5800 5799 5797 5796 5794 5793 5791 5791 5790 5790 5789 5789 5789 5788 5788 5787 5786 5785 5784 5784 5783 5781 5780
5819 5799 5790 5794 5798 5809 5831 5838 5836 5829 5823 5831 5827 5804 5800 5813 5820 5818 5813 5810 5807 5806 5804 5803 5802 5801 5800 5799 5797 5796 5795 5793 5792 5791 5791 5790 5790 5789 5789 5789 5788 5788 5787 5786 5785 5785 5784 5782 5780
5827 5795 5787 5799 5805 5816 5835 5834 5836 5841 5833 5831 5830 5824 5822 5824 5821 5813 5807 5804 5803 5803 5803 5803 5802 5801 5800 5799 5798 5797 5795 5794 5793 5792 5791 5791 5790 5790 5789 5789 5788 5788 5787 5786 5786 5785 5784 5783 5782
5817 5793 5805 5825 5829 5829 5836 5836 5835 5830 5823 5820 5822 5826 5827 5824 5817 5810 5804 5801 5800 5801 5802 5804 5803 5802 5800 5799 5798 5796 5796 5794 5793 5792 5792 5791 5791 5790 5789 5789 5789 5788 5787 5786 5786 5785 5785 5784 5783
5823 5814 5829 5838 5844 5842 5837 5838 5842 5827 5815 5819 5819 5820 5822 5819 5815 5810 5808 5807 5805 5805 5805 5805 5804 5803 5801 5800 5798 5796 5796 5794 5793 5792 5792 5791 5790 5790 5789 5789 5788 5788 5787 5786 5786 5785 5785 5784 5784
5829 5835 5841 5842 5849 5845 5840 5840 5837 5832 5829 5837 5834 5830 5824 5817 5813 5811 5809 5809 5808 5806 5806 5806 5805 5804 5802 5800 5799 5797 5796 5794 5793 5793 5793 5791 5790 5790 5789 5789 5788 5788 5787 5786 5785 5784 5784 5784 5784
5832 5836 5848 5852 5851 5850 5846 5840 5838 5835 5842 5842 5837 5830 5824 5819 5816 5816 5815 5814 5811 5808 5807 5807 5806 5805 5803 5801 5799 5798 5797 5795 5795 5794 5793 5792 5791 5790 5790 5789 5788 5788 5786 5785 5784 5783 5783 5782 5782
5839 5842 5847 5851 5849 5850 5842 5840 5838 5835 5843 5837 5832 5826 5825 5821 5819 5816 5814 5812 5811 5809 5809 5809 5807 5806 5804 5802 5800 5799 5798 5797 5795 5794 5794 5793 5792 5790 5790 5788 5788 5787 5786 5785 5784 5783 5782 5781 5781
5846 5835 5838 5845 5847 5847 5843 5826 5833 5841 5841 5833 5829 5827 5825 5824 5822 5818 5817 5815 5813 5811 5810 5809 5808 5807 5804 5802 5801 5800 5798 5797 5795 5794 5794 5793 5792 5791 5789 5788 5787 5787 5786 5785 5783 5782 5780 5779 5779
5835 5822 5813 5837 5847 5848 5833 5808 5832 5843 5837 5829 5828 5827 5824 5823 5823 5822 5820 5818 5816 5813 5810 5809 5810 5806 5804 5802 5800 5799 5797 5796 5794 5794 5793 5792 5791 5790 5789 5787 5786 5786 5785 5783 5781 5780 5778 5776 5775
5813 5803 5807 5824 5844 5844 5830 5814 5832 5842 5836 5829 5828 5827 5824 5822 5822 5823 5822 5820 5818 5815 5812 5809 5808 5805 5804 5802 5800 5798 5796 5794 5794 5793 5792 5791 5790 5789 5788 5787 5786 5785 5783 5781 5780 5777 5775 5773 5772
5800 5804 5810 5814 5835 5836 5825 5821 5832 5839 5835 5829 5827 5825 5823 5821 5822 5825 5824 5822 5819 5816 5813 5810 5808 5805 5804 5801 5798 5795 5793 5793 5792 5791 5790 5789 5788 5787 5786 5785 5784 5783 5780 5778 5777 5774 5773 5772 5770
5820 5813 5809 5822 5839 5831 5822 5820 5828 5834 5829 5826 5824 5822 5821 5822 5827 5827 5826 5823 5819 5815 5812 5809 5806 5804 5802 5798 5794 5791 5788 5789 5789 5790 5789 5788 5786 5786 5784 5782 5781 5779 5777 5775 5774 5772 5769 5768 5767
5823 5812 5810 5823 5839 5831 5818 5816 5824 5830 5829 5830 5828 5825 5822 5821 5823 5824 5824 5822 5817 5813 5811 5809 5806 5804 5802 5799 5796 5793 5790 5788 5788 5787 5787 5786 5785 5784 5782 5780 5778 5777 5774 5772 5771 5769 5765 5764 5763
5820 5813 5814 5816 5827 5826 5814 5801 5809 5822 5830 5832 5831 5830 5827 5824 5822 5822 5821 5820 5818 5814 5811 5810 5807 5804 5802 5799 5795 5791 5787 5785 5783 5782 5782 5783 5783 5781 5779 5778 5776 5774 5772 5769 5768 5766 5762 5758 5758
5812 5832 5830 5824 5808 5795 5804 5776 5795 5808 5815 5823 5826 5827 5826 5826 5824 5822 5821 5819 5817 5816 5814 5811 5807 5804 5801 5798 5793 5787 5782 5778 5779 5779 5780 5780 5780 5778 5777 5775 5773 5771 5769 5767 5766 5765 5762 5757 5753
5828 5841 5832 5823 5805 5791 5795 5779 5785 5802 5804 5815 5823 5828 5828 5828 5826 5823 5822 5821 5819 5816 5813 5810 5806 5802 5799 5796 5792 5787 5782 5780 5779 5778 5776 5775 5775 5775 5774 5772 5770 5768 5767 5765 5763 5761 5759 5756 5752
5844 5831 5820 5807 5790 5771 5786 5777 5776 5793 5805 5814 5821 5826 5827 5826 5825 5822 5820 5819 5816 5814 5810 5806 5801 5798 5797 5794 5790 5786 5782 5778 5776 5774 5772 5771 5771 5771 5770 5769 5767 5765 5764 5762 5760 5758 5756 5753 5750
5831 5799 5772 5767 5758 5763 5787 5778 5780 5808 5820 5821 5819 5821 5823 5823 5820 5817 5814 5811 5810 5808 5806 5802 5798 5795 5794 5792 5789 5786 5782 5778 5775 5772 5770 5768 5766 5765 5766 5766 5763 5761 5760 5758 5756 5754 5752 5750 5747
5821 5803 5769 5754 5751 5761 5778 5771 5788 5815 5822 5824 5823 5822 5821 5819 5817 5815 5813 5809 5806 5805 5803 5799 5795 5792 5791 5789 5786 5784 5780 5777 5774 5772 5770 5767 5765 5764 5763 5762 5760 5758 5756 5755 5752 5750 5748 5746 5743
5816 5806 5804 5777 5768 5755 5762 5776 5794 5808 5811 5815 5815 5816 5816 5816 5814 5812 5810 5808 5805 5801 5799 5797 5793 5791 5789 5787 5783 5780 5777 5775 5772 5770 5769 5766 5764 5763 5761 5758 5755 5753 5751 5749 5747 5744 5743 5741 5739
5828 5816 5791 5772 5753 5743 5755 5764 5771 5788 5797 5806 5808 5809 5811 5811 5809 5807 5806 5805 5803 5800 5798 5796 5792 5788 5786 5783 5780 5778 5775 5773 5771 5768 5765 5763 5762 5760 5757 5754 5751 5749 5746 5743 5740 5738 5736 5734 5732
5812 5805 5790 5772 5765 5745 5738 5756 5799 5798 5804 5804 5805 5806 5806 5806 5805 5803 5802 5802 5800 5797 5793 5790 5787 5783 5781 5779 5776 5774 5771 5769 5767 5765 5763 5760 5758 5755 5752 5750 5747 5744 5741 5738 5735 5732 5730 5727 5725
5816 5806 5790 5767 5759 5755 5745 5760 5811 5807 5806 5804 5802 5803 5804 5803 5803 5802 5799 5795 5791 5789 5787 5785 5783 5779 5777 5775 5772 5769 5766 5764 5761 5759 5758 5756 5753 5751 5748 5746 5742 5740 5737 5734 5730 5727 5724 5721 5718